FW0775 Weather Reports


Display with metric or nautical units.
time (UTC)temp
F
wind
direction
speed
MPH
gust
MPH
rain 1hr
in
rain 24hr
in
rain mn
in
humidity
%
barometer
mb
20260507094536 55 303 0.0 1.0 0.00 0.00 0.00 89 1018.1
20260507093034 56 303 0.0 0.0 0.00 0.00 0.00 89 1018.2
20260507091540 56 303 0.0 2.0 0.00 0.00 0.00 89 1018.3
20260507090034 56 303 0.0 0.0 0.00 0.00 0.00 89 1018.4
20260507084526 56 303 0.0 0.0 0.00 0.00 0.00 89 1018.7
20260507083022 56 303 0.0 0.0 0.00 0.00 0.00 89 1018.8
20260507081517 56 303 0.0 0.0 0.00 0.00 0.00 89 1019.0
20260507080013 57 303 0.0 1.0 0.00 0.00 0.00 89 1019.2
20260507074512 57 303 0.0 1.0 0.00 0.00 0.00 88 1019.1
20260507073010 57 303 0.0 0.0 0.00 0.00 0.00 89 1019.1
20260507071505 57 303 0.0 1.0 0.00 0.00 0.00 88 1019.0
20260507070101 57 303 0.0 0.0 0.00 0.00 0.00 88 1019.2
20260507064603 57 303 0.0 0.0 0.00 0.00 0.00 88 1019.3
20260507063106 57 303 0.0 0.0 0.00 0.00 0.00 88 1019.4
20260507061600 58 303 0.0 1.0 0.00 0.00 0.00 88 1019.4
20260507060058 58 303 0.0 1.0 0.00 0.00 0.00 87 1019.4
20260507054558 58 303 0.0 2.0 0.00 0.00 0.00 86 1019.4
20260507053113 58 303 0.0 0.0 0.00 0.00 0.00 86 1019.3
20260507051604 59 303 0.0 2.0 0.00 0.00 0.00 85 1019.4
20260507050056 59 303 1.0 3.0 0.00 0.00 0.00 85 1019.3
20260507044556 59 303 0.0 2.0 0.00 0.00 0.00 84 1019.4
20260507043056 59 303 0.0 2.0 0.00 0.00 0.00 84 1019.4
20260507041555 59 304 1.0 3.0 0.00 0.00 0.00 83 1019.3
20260507040057 60 304 1.0 3.0 0.00 0.00 0.00 83 1019.2
20260507034557 60 281 1.0 4.0 0.00 0.00 0.00 82 1019.1
20260507033059 61 279 1.0 4.0 0.00 0.00 0.00 81 1018.8
20260507031553 61 281 1.0 4.0 0.00 0.00 0.00 79 1018.7
20260507030052 62 293 1.0 4.0 0.00 0.00 0.00 77 1018.6
20260507024604 62 275 3.0 7.0 0.00 0.00 0.00 75 1018.5
20260507023053 63 299 2.0 6.0 0.00 0.00 0.00 71 1018.4
20260507021552 64 288 2.0 7.0 0.00 0.00 0.00 70 1018.2
20260507020107 65 288 2.0 8.0 0.00 0.00 0.00 69 1018.2
20260507014554 66 262 1.0 7.0 0.00 0.00 0.00 67 1018.1
20260507013055 67 254 3.0 8.0 0.00 0.00 0.00 67 1018.1
20260507011548 67 280 3.0 10.0 0.00 0.00 0.00 64 1018.1
20260507010050 68 298 2.0 8.0 0.00 0.00 0.00 63 1018.0
20260507004554 68 296 3.0 9.0 0.00 0.00 0.00 63 1018.0
20260507003049 69 273 3.0 9.0 0.00 0.00 0.00 62 1018.0
20260507001545 69 273 2.0 9.0 0.00 0.00 0.00 62 1017.8
20260507000040 70 288 3.0 10.0 0.00 0.00 0.00 61 1017.5
20260506234544 70 277 3.0 11.0 0.00 0.00 0.00 60 1017.6
20260506233048 71 266 3.0 9.0 0.00 0.00 0.00 59 1017.5
20260506231538 71 255 4.0 11.0 0.00 0.00 0.00 62 1017.6
20260506230046 72 294 3.0 11.0 0.00 0.00 0.00 61 1017.6
20260506224537 72 188 4.0 10.0 0.00 0.00 0.00 61 1017.8
20260506223042 72 279 3.0 16.0 0.00 0.00 0.00 61 1017.9
20260506221534 73 320 2.0 9.0 0.00 0.00 0.00 58 1017.9
20260506220033 73 290 3.0 11.0 0.00 0.00 0.00 59 1018.1
20260506214539 74 288 4.0 11.0 0.00 0.00 0.00 56 1018.1
20260506213029 74 240 2.0 11.0 0.00 0.00 0.00 56 1018.4
20260506211529 74 272 2.0 12.0 0.00 0.00 0.00 58 1018.3
20260506210027 75 257 3.0 13.0 0.00 0.00 0.00 58 1018.4
20260506204527 74 309 3.0 9.0 0.00 0.00 0.00 57 1018.5
20260506203025 74 293 3.0 9.0 0.00 0.00 0.00 57 1018.5
20260506201623 75 163 3.0 10.0 0.00 0.00 0.00 56 1018.6
20260506200019 75 277 3.0 9.0 0.00 0.00 0.00 56 1018.6
20260506194516 75 294 4.0 12.0 0.00 0.00 0.00 56 1018.8
20260506193014 74 250 4.0 9.0 0.00 0.00 0.00 57 1018.9
20260506191509 73 283 3.0 8.0 0.00 0.00 0.00 58 1019.1
20260506190009 73 304 5.0 10.0 0.00 0.00 0.00 56 1019.1
20260506184502 72 289 2.0 9.0 0.00 0.00 0.00 58 1019.1
20260506183105 71 234 2.0 8.0 0.00 0.00 0.00 58 1019.5
20260506181622 71 347 3.0 9.0 0.00 0.00 0.00 58 1019.6
20260506180053 71 315 3.0 8.0 0.00 0.00 0.00 57 1019.8
20260506174548 70 270 2.0 8.0 0.00 0.00 0.00 59 1019.9
20260506173056 69 318 3.0 11.0 0.00 0.00 0.00 61 1020.2
20260506171543 69 284 1.0 6.0 0.00 0.00 0.00 61 1020.2
20260506170040 68 260 2.0 8.0 0.00 0.01 0.00 63 1020.3
20260506164537 65 350 1.0 6.0 0.00 0.01 0.00 68 1020.0
20260506163037 64 282 1.0 4.0 0.00 0.01 0.00 70 1020.2
20260506161530 64 284 1.0 4.0 0.00 0.01 0.00 72 1020.2
20260506160025 62 57 1.0 3.0 0.00 0.01 0.00 72 1020.2
20260506154520 60 32 1.0 4.0 0.00 0.01 0.00 72 1020.0
20260506153021 60 46 1.0 4.0 0.00 0.01 0.00 72 1020.1
20260506151513 60 350 0.0 2.0 0.00 0.01 0.00 75 1020.2
20260506150005 59 93 1.0 3.0 0.00 0.26 0.00 75 1020.2
20260506144608 58 96 0.0 4.0 0.00 0.26 0.00 77 1020.2
20260506143052 57 93 1.0 3.0 0.00 0.26 0.00 79 1020.2
20260506141546 56 87 1.0 4.0 0.00 0.26 0.00 81 1020.1
20260506140039 54 219 0.0 1.0 0.00 0.26 0.00 85 1020.1
20260506134533 53 219 0.0 1.0 0.00 0.26 0.00 86 1020.0
20260506133031 52 219 0.0 2.0 0.00 0.26 0.00 86 1019.8
20260506131534 51 219 0.0 2.0 0.00 0.26 0.00 86 1019.8
20260506130020 51 219 0.0 2.0 0.00 0.34 0.00 86 1019.7
20260506124518 51 220 1.0 3.0 0.00 0.34 0.00 86 1019.5
20260506123016 52 221 0.0 1.0 0.00 0.34 0.00 85 1019.3
20260506121514 52 221 0.0 2.0 0.00 0.34 0.00 85 1019.3
20260506120017 52 228 0.0 2.0 0.00 0.34 0.00 85 1019.3
20260506114517 53 231 1.0 3.0 0.00 0.34 0.00 84 1019.3
20260506113014 53 282 1.0 2.0 0.00 0.34 0.00 83 1019.3
20260506111503 53 282 0.0 2.0 0.00 0.34 0.00 83 1019.3
20260506110001 53 282 1.0 2.0 0.00 0.36 0.00 82 1019.3
20260506104606 53 282 0.0 2.0 0.00 0.36 0.00 82 1019.3
20260506103100 54 282 1.0 3.0 0.00 0.36 0.00 82 1019.1
20260506101558 54 282 0.0 2.0 0.00 0.36 0.00 82 1019.2
20260506100056 54 282 0.0 2.0 0.00 0.37 0.00 82 1019.1